Location: Palomar Mountain Lodge
(33.3110°N, 116.8495°W)
Time: 16:29:13
(UTC-07:00)

Cosmos 2219 - Pass Details

Date: 12 July 2018
Orbit: 834 x 859 km, 71.1° (Epoch: 21 July)

Event Time Altitude Azimuth Distance (km) Brightness Sun altitude
Rises 23:00:16 0° 340° (NNW) 3,389 7.5 -28.6°
Reaches altitude 10° 23:02:43 10° 342° (NNW) 2,449 6.5 -28.9°
Enters shadow 23:07:47 71° 11° (N) 879 3.3 -29.4°
